Temperature
19 19 19 19 19 19 19 19 19 19 19 19 19 19 19 19 19 19 19 19 19 19 19 19 19 18 18 18 18 18 18 18 18 18 18 18 18 18 17 18 18 17 17
20 19 19 19 19 19 19 19 19 19 19 19 19 19 19 19 19 19 19 19 19 19 18 18 18 18 18 18 18 18 18 18 18 18 18 18 18 18 17 18 18 17 17
20 19 19 19 19 19 19 19 19 19 19 19 19 19 19 19 19 19 19 19 19 19 19 18 18 18 18 18 18 18 18 18 18 18 18 18 18 18 17 17 17 17 17
20 19 19 19 19 19 19 19 19 19 19 19 19 19 19 19 19 19 19 18 18 18 18 18 18 18 18 18 18 18 18 18 18 18 18 18 18 17 17 17 17 17 17
20 19 19 19 19 19 19 19 19 19 19 19 19 19 19 19 19 19 18 18 18 18 18 18 18 18 18 18 18 18 18 18 18 18 18 18 18 17 17 17 17 17 17
20 19 19 19 19 19 19 19 19 19 19 19 19 19 19 19 19 18 18 18 18 18 18 18 18 18 18 18 18 18 18 18 18 17 17 17 18 18 17 17 17 17 17
20 19 19 19 19 19 19 19 19 19 19 19 19 19 19 19 18 18 18 18 18 18 18 18 18 18 18 18 18 18 18 18 18 17 17 17 17 17 18 17 17 17 17
20 19 19 19 19 19 19 19 19 19 19 19 18 18 18 18 18 18 18 18 18 18 18 18 18 18 18 18 18 18 18 17 17 17 17 18 18 17 18 17 17 17 17
19 19 19 19 19 19 18 18 18 18 18 18 18 18 18 18 18 18 18 18 18 18 18 18 18 18 18 18 18 18 18 17 17 17 17 18 18 18 18 18 17 17 17
19 19 19 19 19 18 18 18 18 18 18 18 18 18 18 18 18 18 18 18 18 18 18 18 18 18 18 18 18 18 18 17 18 17 18 18 18 18 18 17 17 17 17
19 19 19 19 19 18 18 18 18 18 18 18 18 18 18 18 18 18 18 18 18 18 18 18 18 18 18 18 18 18 18 18 17 17 18 18 18 18 17 17 17 17 17
19 19 19 19 18 18 18 18 18 18 18 18 18 18 18 18 18 17 17 17 17 17 17 17 17 18 18 18 18 18 18 18 17 17 17 18 18 18 17 17 17 17 17
19 19 19 18 18 18 18 18 18 18 18 18 18 18 18 17 17 17 17 17 17 17 17 17 17 17 17 17 17 17 17 17 17 18 17 17 18 18 17 17 17 17 17
19 19 19 19 19 18 18 18 18 18 18 18 18 17 17 17 17 17 17 17 17 17 17 17 17 17 17 17 17 17 17 17 17 17 17 17 17 17 17 17 17 17 17
19 19 19 19 19 18 18 18 18 18 18 18 18 17 17 17 17 17 17 17 17 17 17 17 17 17 17 17 17 17 17 17 17 17 17 17 17 17 17 17 17 17 17
19 19 19 19 19 18 18 18 18 18 18 18 18 17 17 17 17 17 17 17 17 17 17 17 17 17 17 17 17 17 17 17 17 17 17 17 17 17 17 17 17 17 17
19 19 19 19 19 18 18 18 18 18 18 18 17 17 17 17 17 17 17 17 17 17 17 17 17 17 17 17 17 17 17 17 17 17 17 17 17 17 17 17 17 17 17
20 19 19 19 19 18 18 18 18 17 17 17 17 17 17 17 17 17 17 17 17 17 17 17 17 17 17 17 17 17 17 17 17 17 17 17 17 17 17 17 17 17 17
20 19 19 19 19 18 18 18 18 17 17 17 17 17 17 17 17 17 17 17 17 17 17 17 17 17 17 17 17 17 17 17 17 17 17 17 17 17 17 17 17 17 17
20 19 19 19 19 18 18 18 18 17 17 17 17 17 17 17 17 17 17 17 17 17 17 16 16 16 16 16 16 17 17 17 17 17 17 17 17 17 17 17 17 17 17
20 19 19 19 19 18 18 18 18 18 17 17 17 17 17 17 17 17 17 17 16 16 16 16 16 16 16 16 16 16 17 17 17 17 17 17 17 17 17 17 17 17 17
20 19 19 19 19 18 18 18 18 17 17 17 17 17 17 17 17 16 16 16 16 16 16 16 16 16 16 16 16 16 16 17 17 17 17 17 17 17 17 17 17 17 17
20 20 19 19 19 18 18 18 18 17 17 17 17 17 17 17 16 16 16 16 16 16 16 16 16 16 16 16 16 16 16 16 16 17 17 17 17 17 17 17 17 17 17
20 20 19 19 19 18 18 18 17 17 17 17 17 17 16 16 16 16 16 16 16 16 16 16 16 16 16 16 16 16 16 16 16 16 16 16 16 16 16 16 16 16 16
20 20 19 19 19 18 18 18 17 17 17 17 17 17 16 16 16 16 16 16 16 16 16 16 16 16 16 16 16 16 16 16 16 16 16 16 16 16 16 16 16 16 16
20 20 19 19 19 18 18 18 17 17 17 17 17 17 16 16 16 16 16 16 16 16 16 15 15 15 15 16 16 16 16 16 16 16 16 16 16 16 16 16 16 16 16
Wind_Speed
2 3 7 7 9 10 11 12 13 13 14 14 14 14 14 14 14 13 13 12 12 12 11 10 10 10 11 11 10 10 10 10 10 10 10 11 10 11 10 11 11 10 12
4 4 8 8 8 10 11 12 12 13 13 13 13 13 12 12 12 12 12 12 11 11 10 10 10 10 10 10 10 9 9 9 9 9 9 9 10 10 10 10 10 10 12
5 5 7 8 8 9 10 11 12 12 12 12 12 12 12 11 11 11 11 11 10 10 10 9 9 9 9 9 8 8 8 8 8 8 8 7 8 9 9 10 10 11 11
5 5 7 9 9 9 9 10 11 11 11 11 11 11 11 11 10 10 10 10 10 9 9 9 8 8 8 8 7 7 7 7 7 7 6 6 6 8 9 10 10 11 11
5 5 6 10 9 9 9 9 10 9 9 9 9 10 9 9 9 9 9 9 9 8 8 8 8 7 7 7 7 6 6 6 6 5 5 5 6 8 9 10 10 10 11
5 4 5 9 9 9 9 9 9 8 8 8 8 8 8 8 8 8 8 8 7 7 7 7 7 6 6 6 6 6 6 6 5 5 5 5 6 8 9 9 10 10 11
4 3 4 8 8 8 8 8 8 8 7 7 8 8 8 7 7 7 7 7 7 7 6 6 6 5 6 6 6 6 6 6 5 5 5 5 7 9 9 9 9 10 11
4 3 3 6 7 7 7 8 7 7 7 7 7 7 7 7 6 6 7 7 7 7 6 6 6 5 6 6 6 6 6 5 5 5 5 5 7 9 9 9 9 9 11
4 3 2 3 5 6 6 6 6 6 6 6 6 6 6 6 6 6 6 6 6 6 6 6 6 6 6 7 7 6 6 6 5 4 5 5 7 9 10 9 9 10 11
3 2 2 2 3 3 4 5 5 4 4 4 4 5 6 5 5 5 4 5 5 6 5 5 5 5 6 6 6 6 6 5 5 4 4 6 8 8 9 9 9 10 11
2 1 1 2 2 2 2 3 3 3 3 3 3 4 3 2 2 3 3 4 4 4 5 5 5 6 6 6 6 6 5 4 5 4 5 6 8 8 9 9 9 10 11
2 1 0 1 1 1 2 2 2 1 1 2 2 1 1 1 0 1 2 4 4 4 4 5 5 5 5 4 4 5 3 4 5 5 5 7 9 9 9 9 9 10 11
3 2 1 1 1 1 1 2 1 1 1 1 1 1 1 1 0 1 1 3 3 3 2 3 3 2 1 2 2 2 3 4 4 5 6 8 9 9 9 9 9 10 11
2 2 1 1 1 1 1 1 1 1 0 1 0 0 1 1 0 1 1 1 1 1 1 1 1 1 1 1 2 2 3 3 4 4 5 8 9 9 9 9 10 10 11
3 3 2 1 1 1 1 1 1 0 0 0 0 0 1 1 1 1 1 1 1 1 1 1 1 1 1 1 2 2 3 4 4 4 5 7 8 8 9 10 10 10 11
4 3 2 2 2 2 2 1 1 0 0 0 0 1 1 2 1 0 0 0 1 1 1 1 1 1 1 1 1 2 3 4 4 4 5 6 8 9 9 10 9 9 10
5 4 3 3 2 2 2 2 1 1 1 0 0 1 1 1 1 1 1 0 1 1 1 1 0 0 1 1 1 2 2 3 4 4 5 5 6 8 9 9 10 9 10
4 4 4 3 3 3 2 2 1 1 1 0 0 0 1 1 2 1 1 1 1 1 1 1 0 0 1 1 1 2 1 2 3 3 4 4 4 5 6 8 9 9 9
5 4 4 3 3 3 2 2 1 1 1 0 0 1 1 1 2 2 1 0 1 1 0 1 0 0 1 1 1 1 1 1 2 2 2 3 4 4 4 6 7 7 7
4 4 4 3 3 3 2 2 1 2 1 1 0 1 1 1 0 1 1 0 1 1 0 0 0 0 0 1 1 1 1 1 1 1 2 2 3 4 4 4 4 5 6
3 3 4 4 3 3 2 2 1 1 0 1 1 1 1 0 0 1 1 1 0 1 1 0 0 0 0 0 1 2 2 1 0 0 1 1 2 2 3 3 4 4 4
4 4 4 3 3 3 2 2 2 1 1 0 1 1 1 1 0 0 1 0 0 0 0 1 1 1 0 1 1 1 1 2 2 1 0 1 1 1 2 3 3 4 4
4 5 5 4 4 3 3 2 2 2 2 2 2 2 2 1 1 0 1 1 1 1 0 1 1 1 1 0 1 2 2 1 1 1 1 1 0 0 1 2 3 3 4
5 4 4 4 3 3 4 4 4 2 1 1 1 1 2 2 2 1 0 1 1 0 0 1 1 1 2 1 0 0 1 2 1 0 1 1 1 1 1 1 1 2 3
4 4 4 4 3 3 3 4 4 2 2 1 1 1 1 2 2 2 1 1 0 0 0 0 0 1 1 2 1 1 1 1 1 1 1 2 1 1 0 1 1 1 2
4 4 4 4 3 2 3 3 4 3 2 1 0 1 1 1 2 2 1 1 0 0 1 1 1 1 1 1 1 1 2 1 2 2 2 1 1 1 1 1 1 1 2
Wind_Direction
184 183 158 142 134 128 126 125 127 127 127 127 130 133 134 136 137 137 137 136 135 135 133 130 130 131 131 131 133 134 136 138 139 140 142 146 147 146 146 144 140 140 142
152 168 161 149 139 133 130 129 129 131 131 131 133 135 136 137 139 138 137 137 138 138 136 134 132 133 133 134 136 138 140 145 146 147 146 149 151 151 152 150 148 147 146
129 153 160 149 142 138 135 133 132 133 134 135 138 139 139 139 140 140 140 140 141 141 140 139 137 137 135 135 138 142 147 150 152 153 150 146 155 158 158 156 155 152 150
129 142 153 145 141 139 137 136 135 134 134 137 140 141 141 143 145 146 145 145 146 146 147 148 144 143 143 141 142 144 149 152 152 154 146 150 164 166 166 164 160 157 155
117 129 150 143 140 140 140 137 136 138 139 139 141 145 146 147 150 150 151 152 151 151 153 154 154 155 154 152 152 152 152 155 158 157 153 160 169 174 174 171 168 166 165
115 127 151 143 142 143 141 141 142 144 144 146 147 148 153 156 157 157 157 159 160 161 161 161 161 164 164 164 166 165 164 165 161 163 167 174 177 180 179 180 175 174 173
116 123 146 144 146 146 143 143 143 145 148 151 154 157 158 157 160 163 166 168 171 172 171 172 171 176 179 181 183 182 180 179 171 170 176 184 187 186 188 189 183 181 180
125 125 143 146 144 147 148 150 150 152 153 155 157 162 165 167 170 174 181 184 186 186 188 188 185 190 195 198 201 202 197 194 178 177 183 188 193 191 191 192 190 187 184
106 106 106 137 148 151 152 152 152 152 157 165 167 170 174 177 182 188 194 195 196 200 204 204 202 204 209 210 212 214 209 198 174 178 193 195 199 197 193 194 197 193 185
88 89 95 106 113 125 148 156 157 157 159 168 177 182 184 188 196 204 207 208 211 214 214 218 218 220 221 221 219 217 214 197 175 181 197 205 206 201 196 197 202 197 191
104 63 62 67 86 110 141 157 161 162 153 144 157 167 167 172 205 223 220 222 224 229 233 238 238 239 234 229 226 219 210 181 179 189 203 212 209 203 200 201 202 202 198
182 201 149 120 117 128 152 136 132 151 140 119 104 116 113 109 214 232 251 247 244 243 247 251 251 247 238 230 232 224 199 185 189 204 216 214 209 208 207 208 204 204 204
194 200 197 178 156 147 136 125 112 89 88 78 80 89 100 88 324 314 306 293 287 273 283 284 277 273 250 221 225 222 201 192 198 211 219 217 214 214 212 210 212 210 209
176 205 198 178 147 159 142 110 105 86 93 83 91 123 126 102 2 334 312 304 308 299 296 295 305 306 287 237 219 213 202 198 204 214 223 223 222 219 218 216 218 218 216
181 207 204 158 150 160 130 102 96 99 131 222 249 199 174 171 241 288 318 326 304 284 260 266 286 289 278 264 235 209 202 209 209 214 221 224 224 222 220 219 219 220 220
192 201 196 171 166 146 149 153 131 159 148 318 288 241 206 198 207 182 257 315 280 257 238 215 222 225 247 251 253 230 211 211 211 210 215 229 228 223 224 224 223 220 221
195 194 189 183 161 160 171 174 161 157 139 97 268 250 218 206 196 181 175 228 269 232 166 128 116 239 251 246 252 254 233 226 219 215 217 226 230 229 229 229 227 225 224
183 183 195 191 173 180 174 160 137 136 121 105 205 247 244 228 203 169 168 237 241 158 124 127 118 319 285 266 265 269 261 244 232 220 214 220 222 229 235 235 231 229 230
183 179 178 179 174 178 167 144 125 96 94 121 162 240 259 242 210 172 174 246 188 126 135 185 46 215 252 268 269 278 282 259 249 230 218 223 222 222 229 236 235 229 230
176 169 166 171 174 154 132 105 81 60 25 16 360 271 266 257 201 157 135 333 115 108 39 20 51 31 217 256 301 345 328 290 252 219 227 221 219 220 221 225 225 225 231
163 167 175 172 166 145 132 137 144 192 279 347 329 308 306 309 101 117 69 56 87 161 199 164 134 88 17 56 51 6 3 5 62 171 209 207 212 218 204 206 207 211 222
178 185 185 183 169 170 172 163 158 150 176 214 340 354 334 343 339 77 75 72 63 158 97 118 130 138 53 93 125 102 11 356 11 23 32 210 211 203 210 216 213 210 214
189 193 194 187 179 177 161 119 95 70 38 24 7 352 339 331 332 23 68 83 70 140 190 215 170 154 157 47 110 140 144 218 304 343 350 347 31 164 230 230 226 227 224
201 189 177 175 176 175 156 149 149 151 172 244 264 317 338 351 349 349 9 79 77 80 148 236 166 166 145 173 198 93 169 161 161 304 332 334 340 322 294 265 254 239 234
188 176 170 161 168 169 165 167 161 164 190 230 316 345 339 342 340 336 330 45 58 336 250 261 112 142 163 173 174 166 153 124 162 170 266 313 340 326 304 287 268 258 248
172 165 160 157 169 158 156 160 164 168 175 169 274 312 319 330 338 340 344 17 324 260 241 210 177 174 187 167 175 164 161 166 185 177 206 248 284 321 336 323 304 285 260
Height
1504 1504 1505 1507 1507 1508 1509 1510 1511 1513 1514 1516 1518 1520 1521 1523 1524 1526 1527 1528 1530 1531 1532 1533 1535 1536 1537 1538 1540 1541 1542 1543 1544 1545 1546 1547 1548 1549 1550 1551 1552 1553 1554
1505 1506 1507 1508 1509 1510 1511 1512 1514 1515 1516 1518 1520 1521 1523 1524 1526 1527 1528 1529 1531 1532 1533 1534 1535 1536 1538 1539 1540 1541 1543 1544 1545 1546 1547 1547 1549 1550 1550 1552 1552 1553 1554
1506 1507 1508 1509 1511 1512 1513 1514 1515 1517 1518 1520 1521 1523 1524 1526 1527 1528 1529 1530 1532 1533 1534 1535 1536 1537 1538 1539 1541 1542 1543 1544 1545 1546 1547 1548 1549 1550 1551 1552 1553 1554 1555
1507 1508 1510 1511 1512 1514 1515 1516 1517 1518 1520 1521 1523 1524 1525 1527 1528 1529 1530 1531 1532 1534 1535 1536 1536 1537 1539 1540 1541 1542 1543 1544 1545 1546 1547 1548 1549 1550 1551 1552 1553 1554 1555
1509 1510 1512 1513 1514 1515 1516 1518 1519 1520 1521 1523 1524 1525 1526 1527 1528 1529 1531 1532 1533 1534 1535 1536 1537 1538 1539 1540 1541 1542 1543 1544 1545 1546 1547 1548 1549 1550 1551 1552 1553 1554 1555
1511 1512 1513 1515 1516 1517 1518 1519 1520 1521 1522 1523 1524 1526 1527 1528 1529 1530 1531 1532 1533 1534 1535 1536 1537 1538 1539 1540 1541 1542 1543 1544 1545 1546 1547 1548 1549 1550 1551 1552 1553 1554 1555
1512 1514 1515 1516 1517 1518 1519 1520 1521 1522 1523 1524 1525 1526 1527 1528 1529 1530 1531 1532 1533 1534 1535 1536 1537 1538 1539 1540 1541 1542 1543 1544 1544 1545 1547 1548 1549 1550 1551 1552 1553 1554 1555
1514 1515 1516 1517 1519 1519 1520 1521 1522 1523 1524 1524 1525 1526 1527 1528 1529 1530 1531 1532 1533 1534 1535 1535 1536 1537 1538 1539 1540 1542 1542 1543 1544 1545 1546 1547 1548 1549 1550 1551 1552 1553 1554
1516 1516 1517 1518 1520 1520 1521 1522 1523 1523 1524 1525 1525 1526 1527 1528 1529 1530 1531 1532 1533 1533 1534 1535 1535 1536 1537 1539 1540 1541 1542 1542 1543 1544 1545 1546 1547 1548 1549 1550 1551 1553 1554
1517 1518 1519 1519 1520 1521 1522 1522 1523 1524 1524 1524 1525 1526 1527 1528 1529 1530 1530 1531 1532 1532 1533 1534 1534 1535 1536 1537 1538 1540 1540 1541 1542 1543 1544 1545 1547 1548 1549 1550 1551 1552 1553
1518 1519 1519 1520 1521 1521 1522 1523 1524 1524 1524 1524 1524 1526 1527 1528 1528 1529 1529 1530 1531 1531 1532 1532 1533 1534 1534 1535 1537 1538 1539 1540 1541 1542 1543 1544 1546 1547 1548 1549 1550 1551 1552
1518 1520 1520 1521 1521 1522 1523 1523 1524 1524 1524 1525 1525 1526 1526 1527 1528 1528 1528 1529 1529 1530 1531 1531 1532 1532 1533 1534 1535 1537 1538 1538 1540 1541 1542 1543 1544 1545 1546 1547 1548 1549 1551
1520 1520 1521 1521 1522 1522 1523 1524 1524 1524 1525 1525 1525 1526 1526 1527 1527 1527 1527 1527 1528 1529 1529 1530 1530 1531 1531 1532 1534 1535 1536 1537 1538 1539 1540 1541 1543 1544 1545 1546 1547 1548 1549
1520 1521 1521 1522 1523 1523 1524 1524 1524 1525 1525 1525 1526 1526 1526 1526 1526 1526 1526 1527 1527 1528 1528 1529 1529 1530 1530 1531 1532 1533 1535 1536 1537 1538 1539 1540 1541 1542 1543 1544 1545 1547 1548
1521 1522 1522 1522 1523 1524 1524 1524 1525 1525 1525 1526 1526 1526 1526 1526 1526 1526 1526 1526 1527 1527 1528 1528 1528 1529 1530 1530 1531 1532 1533 1534 1535 1536 1537 1539 1540 1541 1542 1543 1544 1545 1546
1521 1522 1523 1523 1523 1524 1524 1525 1525 1526 1526 1526 1526 1526 1526 1526 1525 1525 1525 1525 1526 1526 1527 1527 1527 1528 1528 1529 1530 1531 1532 1532 1533 1535 1536 1537 1538 1539 1540 1541 1542 1543 1544
1521 1522 1523 1523 1524 1524 1524 1525 1525 1525 1526 1526 1526 1526 1525 1525 1525 1525 1525 1525 1525 1525 1525 1526 1526 1527 1527 1527 1528 1529 1530 1531 1532 1533 1534 1535 1536 1537 1538 1539 1540 1541 1542
1522 1522 1523 1524 1524 1524 1524 1525 1525 1526 1526 1526 1526 1525 1525 1524 1524 1524 1524 1524 1524 1524 1525 1525 1525 1525 1525 1526 1526 1527 1528 1529 1530 1531 1532 1533 1534 1535 1536 1537 1538 1539 1540
1522 1522 1523 1523 1524 1524 1525 1525 1526 1526 1526 1526 1525 1525 1524 1524 1523 1523 1523 1523 1523 1523 1524 1524 1524 1524 1524 1524 1524 1525 1526 1527 1528 1529 1529 1530 1532 1533 1534 1535 1536 1537 1537
1521 1522 1523 1523 1524 1524 1525 1525 1526 1526 1526 1525 1525 1524 1524 1523 1522 1522 1522 1522 1522 1522 1522 1523 1523 1522 1522 1522 1523 1523 1524 1525 1526 1527 1527 1528 1529 1530 1531 1533 1533 1534 1535
1520 1521 1522 1522 1523 1524 1524 1525 1525 1525 1525 1525 1525 1524 1524 1523 1522 1522 1521 1521 1521 1521 1521 1521 1521 1521 1521 1521 1521 1521 1522 1523 1524 1525 1526 1527 1527 1528 1529 1530 1531 1532 1533
1519 1520 1521 1522 1523 1523 1524 1524 1525 1525 1525 1525 1525 1524 1524 1523 1522 1522 1521 1521 1521 1521 1520 1520 1520 1520 1520 1520 1521 1521 1521 1523 1523 1523 1524 1525 1526 1526 1527 1528 1529 1529 1530
1518 1519 1520 1521 1522 1522 1523 1523 1524 1524 1524 1524 1524 1524 1524 1523 1523 1522 1521 1521 1520 1520 1520 1519 1519 1519 1519 1520 1520 1521 1520 1520 1521 1522 1523 1523 1524 1524 1525 1526 1526 1527 1528
1517 1518 1519 1520 1521 1521 1522 1522 1523 1523 1523 1523 1523 1523 1523 1523 1522 1522 1521 1520 1520 1519 1519 1519 1518 1518 1519 1519 1519 1519 1520 1520 1520 1521 1522 1522 1522 1523 1523 1523 1524 1525 1526
1516 1517 1518 1519 1520 1521 1521 1521 1522 1522 1523 1523 1523 1522 1522 1522 1522 1521 1521 1519 1519 1519 1518 1518 1517 1517 1517 1517 1517 1518 1518 1518 1519 1519 1519 1520 1521 1521 1521 1522 1522 1523 1523
1515 1516 1517 1518 1519 1520 1520 1521 1521 1521 1522 1522 1522 1522 1521 1521 1521 1521 1520 1519 1518 1518 1517 1516 1516 1516 1516 1516 1516 1516 1516 1517 1517 1517 1518 1518 1519 1519 1520 1520 1520 1521 1521